Vancouver, WA
on Thursday, February 28, 2013

Thursday
Previous Day Next Day
Daily Summary
 ActualAverageRecord
Temperature
Mean Temperature °F / °C 45°F / 7°C  
Max Temperature 57°F / 14°C 54°F / 12°C 69°F / 20°C (1901)
Min Temperature 45°F / 7°C 36°F / 2°C 23°F / -5°C (1922)
Degree Days
Heating Degree Days 14    
Month to date heating degree days 609  
Since 1 July heating degree days 3032  
Cooling Degree Days 0    
Month to date cooling degree days 0  
Year to date cooling degree days 0  
Moisture
Dew Point 47°F / 8°C   
Average Humidity 89    
Maximum Humidity 100    
Minimum Humidity 77    
Precipitation
Precipitation 0.17 in / 4.32 cm 0.16 in / 4.06 cm 1.46 in / 3.71 cm (2011)
Month to date precipitation 1.16 4.03  
Year to date precipitation 4.56 9.53  
Snow
Snow 0.00 in / 0.00 cm in / cm in / cm ()
Month to date snowfall 0.0  
Snow Depth 0.00 in / 0.00 cm   
Wind
Wind Speed 6 mph / 10 km/h   
Max Wind Speed 13 mph / 21 km/h   
Max Gust Speed 18 mph / 29 km/h   
Visibility 8 miles / 12 kilometers   
Events Rain   

Key: T is trace of precipitation, MM is missing value
Source: NWS Daily Summary
Time(PST)TemperatureDew PointHumidity Pressure Visibility Wind DirectionWind SpeedGust SpeedPrecipitationEvents Conditions
12:20 AM 46.4°F / 8.0°C 44.6°F / 7.0°C 93% 30.24 in / 1023.9 hPa 3.0 miles / 4.8 kilometers ESE 4.6 mph / 7.4 km/h - 0.03 in / 0.8 cm Rain Light Rain
12:31 AM 46.4°F / 8.0°C 44.6°F / 7.0°C 93% 30.24 in / 1023.9 hPa 4.0 miles / 6.4 kilometers ESE 4.6 mph / 7.4 km/h - 0.03 in / 0.8 cm Rain Light Rain
12:53 AM 46.0°F / 7.8°C 44.1°F / 6.7°C 93% 30.23 in / 1023.7 hPa 4.0 miles / 6.4 kilometers ESE 6.9 mph / 11.1 km/h - 0.04 in / 1.0 cm Rain Light Rain
1:13 AM 44.6°F / 7.0°C 44.6°F / 7.0°C 100% 30.23 in / 1023.6 hPa 3.0 miles / 4.8 kilometers ESE 5.8 mph / 9.3 km/h - 0.01 in / 0.3 cm Rain Light Rain
1:44 AM 44.6°F / 7.0°C 44.6°F / 7.0°C 100% 30.23 in / 1023.6 hPa 2.5 miles / 4.0 kilometers ESE 6.9 mph / 11.1 km/h - 0.02 in / 0.5 cm Rain Light Rain
1:53 AM 45.0°F / 7.2°C 44.1°F / 6.7°C 97% 30.23 in / 1023.5 hPa 2.5 miles / 4.0 kilometers SE 8.1 mph / 13.0 km/h - 0.02 in / 0.5 cm Rain Light Rain
2:27 AM 44.6°F / 7.0°C 44.6°F / 7.0°C 100% 30.22 in / 1023.2 hPa 3.0 miles / 4.8 kilometers East 6.9 mph / 11.1 km/h - 0.02 in / 0.5 cm Rain Light Rain
2:48 AM 44.6°F / 7.0°C 44.6°F / 7.0°C 100% 30.22 in / 1023.2 hPa 3.0 miles / 4.8 kilometers SE 3.5 mph / 5.6 km/h - 0.02 in / 0.5 cm Rain Light Rain
2:53 AM 45.0°F / 7.2°C 44.1°F / 6.7°C 97% 30.22 in / 1023.3 hPa 3.0 miles / 4.8 kilometers Variable 4.6 mph / 7.4 km/h - 0.02 in / 0.5 cm Rain Light Rain
2:59 AM 44.6°F / 7.0°C 44.6°F / 7.0°C 100% 30.22 in / 1023.2 hPa 2.5 miles / 4.0 kilometers ESE 5.8 mph / 9.3 km/h - 0.01 in / 0.3 cm Rain Light Rain
3:12 AM 44.6°F / 7.0°C 44.6°F / 7.0°C 100% 30.22 in / 1023.2 hPa 3.0 miles / 4.8 kilometers ESE 3.5 mph / 5.6 km/h - 0.02 in / 0.5 cm Rain Light Rain
3:53 AM 45.0°F / 7.2°C 44.1°F / 6.7°C 97% 30.21 in / 1023.0 hPa 3.0 miles / 4.8 kilometers ESE 6.9 mph / 11.1 km/h - 0.03 in / 0.8 cm Rain Light Rain
4:28 AM 44.6°F / 7.0°C 44.6°F / 7.0°C 100% 30.21 in / 1022.9 hPa 5.0 miles / 8.0 kilometers ESE 6.9 mph / 11.1 km/h - 0.01 in / 0.3 cm Rain Light Rain
4:36 AM 44.6°F / 7.0°C 44.6°F / 7.0°C 100% 30.21 in / 1022.9 hPa 7.0 miles / 11.3 kilometers ESE 6.9 mph / 11.1 km/h - 0.01 in / 0.3 cm   Overcast
4:44 AM 44.6°F / 7.0°C 44.6°F / 7.0°C 100% 30.21 in / 1022.9 hPa 9.0 miles / 14.5 kilometers ESE 6.9 mph / 11.1 km/h - 0.01 in / 0.3 cm   Overcast
4:53 AM 46.0°F / 7.8°C 44.1°F / 6.7°C 93% 30.21 in / 1022.9 hPa 10.0 miles / 16.1 kilometers ESE 6.9 mph / 11.1 km/h - 0.01 in / 0.3 cm   Overcast
6:31 AM 50.0°F / 10.0°C 46.4°F / 8.0°C 87% 30.23 in / 1023.6 hPa 10.0 miles / 16.1 kilometers Variable 3.5 mph / 5.6 km/h - N/A   Overcast
6:53 AM 51.1°F / 10.6°C 46.9°F / 8.3°C 86% 30.23 in / 1023.7 hPa 10.0 miles / 16.1 kilometers SSW 8.1 mph / 13.0 km/h - N/A   Overcast
7:53 AM 51.1°F / 10.6°C 46.9°F / 8.3°C 86% 30.24 in / 1023.9 hPa 10.0 miles / 16.1 kilometers SSE 5.8 mph / 9.3 km/h - 0.02 in / 0.5 cm Rain Light Rain
8:29 AM 46.4°F / 8.0°C 44.6°F / 7.0°C 93% 30.26 in / 1024.6 hPa 10.0 miles / 16.1 kilometers SE 4.6 mph / 7.4 km/h - 0.01 in / 0.3 cm Rain Light Rain
8:53 AM 46.9°F / 8.3°C 45.0°F / 7.2°C 93% 30.26 in / 1024.7 hPa 10.0 miles / 16.1 kilometers ESE 4.6 mph / 7.4 km/h - 0.01 in / 0.3 cm Rain Light Rain
9:53 AM 52.0°F / 11.1°C 48.0°F / 8.9°C 86% 30.28 in / 1025.2 hPa 9.0 miles / 14.5 kilometers Variable 6.9 mph / 11.1 km/h - 0.01 in / 0.3 cm Rain Light Rain
10:01 AM 51.8°F / 11.0°C 48.2°F / 9.0°C 88% 30.28 in / 1025.3 hPa 10.0 miles / 16.1 kilometers Variable 4.6 mph / 7.4 km/h - 0.00 in / 0.0 cm Rain Light Rain
10:53 AM 53.1°F / 11.7°C 48.0°F / 8.9°C 83% 30.28 in / 1025.4 hPa 10.0 miles / 16.1 kilometers SE 4.6 mph / 7.4 km/h - 0.01 in / 0.3 cm Rain Light Rain
11:53 AM 54.0°F / 12.2°C 48.0°F / 8.9°C 80% 30.31 in / 1026.2 hPa 10.0 miles / 16.1 kilometers Variable 6.9 mph / 11.1 km/h - 0.00 in / 0.0 cm Rain Light Rain
12:53 PM 55.0°F / 12.8°C 48.0°F / 8.9°C 77% 30.31 in / 1026.3 hPa 10.0 miles / 16.1 kilometers SSW 9.2 mph / 14.8 km/h - 0.00 in / 0.0 cm   Overcast
1:53 PM 55.0°F / 12.8°C 48.9°F / 9.4°C 80% 30.31 in / 1026.3 hPa 10.0 miles / 16.1 kilometers SSW 6.9 mph / 11.1 km/h - 0.00 in / 0.0 cm   Overcast
2:19 PM 55.4°F / 13.0°C 50.0°F / 10.0°C 82% 30.31 in / 1026.3 hPa 10.0 miles / 16.1 kilometers South 5.8 mph / 9.3 km/h - N/A   Overcast
2:45 PM 55.4°F / 13.0°C 50.0°F / 10.0°C 82% 30.31 in / 1026.3 hPa 10.0 miles / 16.1 kilometers South 8.1 mph / 13.0 km/h - 0.00 in / 0.0 cm   Overcast
2:53 PM 55.9°F / 13.3°C 48.9°F / 9.4°C 77% 30.32 in / 1026.5 hPa 10.0 miles / 16.1 kilometers South 9.2 mph / 14.8 km/h - 0.00 in / 0.0 cm   Overcast
3:50 PM 55.4°F / 13.0°C 50.0°F / 10.0°C 82% 30.33 in / 1027.0 hPa 10.0 miles / 16.1 kilometers SSW 4.6 mph / 7.4 km/h - 0.00 in / 0.0 cm   Overcast
3:53 PM 55.9°F / 13.3°C 50.0°F / 10.0°C 80% 30.34 in / 1027.2 hPa 10.0 miles / 16.1 kilometers SSW 6.9 mph / 11.1 km/h - 0.00 in / 0.0 cm   Overcast
4:53 PM 55.9°F / 13.3°C 51.1°F / 10.6°C 84% 30.35 in / 1027.7 hPa 6.0 miles / 9.7 kilometers South 6.9 mph / 11.1 km/h - 0.01 in / 0.3 cm Rain Light Rain
5:03 PM 55.4°F / 13.0°C 51.8°F / 11.0°C 88% 30.35 in / 1027.7 hPa 9.0 miles / 14.5 kilometers South 5.8 mph / 9.3 km/h - 0.00 in / 0.0 cm   Overcast
5:53 PM 55.0°F / 12.8°C 51.1°F / 10.6°C 86% 30.36 in / 1027.9 hPa 10.0 miles / 16.1 kilometers South 6.9 mph / 11.1 km/h - 0.00 in / 0.0 cm   Overcast
6:53 PM 55.9°F / 13.3°C 50.0°F / 10.0°C 80% 30.38 in / 1028.5 hPa 10.0 miles / 16.1 kilometers SSW 5.8 mph / 9.3 km/h - 0.00 in / 0.0 cm   Overcast
7:53 PM 55.0°F / 12.8°C 48.9°F / 9.4°C 80% 30.40 in / 1029.2 hPa 10.0 miles / 16.1 kilometers SSW 8.1 mph / 13.0 km/h - N/A   Overcast
8:53 PM 55.0°F / 12.8°C 48.9°F / 9.4°C 80% 30.40 in / 1029.4 hPa 10.0 miles / 16.1 kilometers South 4.6 mph / 7.4 km/h - N/A   Overcast
9:53 PM 55.0°F / 12.8°C 48.0°F / 8.9°C 77% 30.42 in / 1030.0 hPa 10.0 miles / 16.1 kilometers SSE 4.6 mph / 7.4 km/h - N/A   Overcast
10:09 PM 55.4°F / 13.0°C 48.2°F / 9.0°C 77% 30.43 in / 1030.4 hPa 10.0 miles / 16.1 kilometers SE 4.6 mph / 7.4 km/h - N/A   Overcast
10:53 PM 55.0°F / 12.8°C 48.9°F / 9.4°C 80% 30.43 in / 1030.3 hPa 10.0 miles / 16.1 kilometers SSE 4.6 mph / 7.4 km/h - N/A   Overcast
Moon Phase
Feb. 28 Mar. 04 Mar. 11 Mar. 19 Mar. 27
Sunrise:06:50 AM (PST) Moon Rise:09:43 PM (PST)2/28
Sunset:05:56 PM (PST) Moon Set:07:51 AM (PST)2/28

Copyright © 2014 The Weather Underground, Inc.